Regional Weather Roundup
Issued by NWS

Home | Current Version | Previous Version | Graphics & Text | Print | Product List | Glossary On
Versions: 1 2 3 4 5 6 7 8 9 10 11 12 13 14 15 16 17 18 19 20 21 22 23 24 25 26 27 28 29 30 31 32 33 34 35 36 37 38 39 40 41 42 43 44 45 46 47 48 49 50
000
ASUS45 KCYS 270510
RWRWY

WYOMING REGIONAL WEATHER ROUNDUP
NATIONAL WEATHER SERVICE CHEYENNE WY
1000 PM MST WED NOV 26 2014

NOTE:  "FAIR" INDICATES FEW OR NO CLOUDS BELOW 12,000 FEET
WITH NO SIGNIFICANT WEATHER AND/OR OBSTRUCTIONS TO VISIBILITY.

WYZ001-270600-
YELLOWSTONE NATIONAL PARK

CITY           SKY/WX    TMP DP  RH WIND       PRES   REMARKS
LK YELLOWSTONE   N/A     33  28  81 VRB3      30.28S
W YELLOWSTONE  NOT AVBL

$$
WYZ002>013-054>058-071-098>099-270600-
NORTHERN WYOMING

CITY           SKY/WX    TMP DP  RH WIND       PRES   REMARKS
JACKSON        CLOUDY    37  30  75 S6        30.28S WCI  33
CODY           CLOUDY    23  21  93 N3        30.11S VSB 1/2
GREYBULL       CLOUDY    22  21  96 SE5       30.19S WCI  16
WORLAND        FOG       22  20  92 SE5       30.18F VSB 1/2 WCI  16
SHERIDAN       MOCLDY    24  22  91 CALM      30.11F FOG
BUFFALO        MOCLDY    19  16  88 VRB5      30.10F WCI  12
GILLETTE       PTCLDY    24  21  88 S18       30.13F WCI  10
HULETT           N/A    N/A N/A N/A MISG        N/A
NEWCASTLE      CLOUDY    28  23  80 SE3       30.22F

$$
WYZ014>020-022>026-101>103-270600-
CENTRAL WYOMING

CITY           SKY/WX    TMP DP  RH WIND       PRES   REMARKS
BIG PINEY      PTCLDY   N/A N/A N/A SW3       30.35R
PINEDALE       PTCLDY    27  25  93 W6        30.34S WCI  20
DUBOIS         FAIR      34  25  69 N20       30.24R WCI  22
LANDER         PTCLDY    35  26  69 W6        30.18R WCI  30
RIVERTON       MOCLDY    37  27  67 S6        30.19R WCI  32
CASPER         MOCLDY    19  15  84 W3        30.19R
DOUGLAS        PTCLDY    19  17  92 SW3       30.20S

$$
WYZ021-027>030-104>119-270600-
SOUTHERN WYOMING

CITY           SKY/WX    TMP DP  RH WIND       PRES   REMARKS
EVANSTON       PTCLDY    35  21  56 S13       30.39S WCI  26
FORT BRIDGER   FAIR      40  23  49 SW13      30.40S WCI  33
ROCK SPRINGS   PTCLDY    36  25  64 S8        30.37R WCI  30
DIXON          FAIR      35  26  69 SW7       30.41S WCI  29
RAWLINS        CLOUDY    37  26  64 W20G28    30.31R WCI  27
SARATOGA       FAIR      39  27  60 W17G28    30.32R WCI  30
LARAMIE        PTCLDY    38  24  57 W21       30.26R WCI  28
CHEYENNE       CLEAR     26  21  81 SW3       30.21S
TORRINGTON     CLOUDY    24  23  96 E10       30.23S WCI  14
PINE BLUFFS    FAIR      21  19  93 SW10      30.24F WCI  10

$$


USA.gov is the U.S. government's official web portal to all federal, state and local government web resources and services.